Location: Betz
(49.1556°N, 2.9558°E)
Time: 11:40:46
(UTC+00:00)

Spot 2 Rocket - Pass Details

Date: 18 September 2019
Orbit: 757 x 772 km, 98.6° (Epoch: 17 October)

Event Time Altitude Azimuth Distance (km) Brightness Sun altitude
Exits shadow 20:23:09 63° 136° (SE) 846 3.4 -23.5°
Maximum altitude 20:23:54 78° 73° (ENE) 783 3.3 -23.6°
Drops below altitude 10° 20:28:57 10° 348° (NNW) 2,299 6.6 -24.3°
Sets 20:31:16 0° 347° (NNW) 3,229 7.4 -24.6°
